Location: Wald
(31.7579°N, 86.6655°W)
Time: 10:54:39
(UTC+00:00)

Cosmos 1624 Rocket - Pass Details

Date: 14 July 2020
Orbit: 758 x 783 km, 74.0° (Epoch: 08 August)

Event Time Altitude Azimuth Distance (km) Brightness Sun altitude
Rises 03:26:32 0° 348° (NNW) 3,225 8.2 -26.2°
Reaches altitude 10° 03:28:58 10° 352° (N) 2,293 7.2 -26.5°
Enters shadow 03:33:34 55° 46° (NE) 905 4.3 -27.1°
